STARLINK-1177 (45078 NORAD) Tracking and Keplerian Element Data

This shows tracking and keplerian element data for the satellite.

Feedback or suggestion? Click here.




ElementValue
Catalog45078
NameSTARLINK-1177
Epoch Orbit1014
Epoch Day93.91667824
Epoch Year2020
RAAN276.2189
Inclination52.9997
Eccentricity0.000358
Argument of Perigee35.2786
Mean Anonmoly325.3992
Mean Motion15.43222551
Decay Rate0.04712186
L11 45078U 20006AL 20093.91667824 .04712186 00000-0 90548-1 0 9995
L22 45078 52.9997 276.2189 0003580 35.2786 325.3992 15.43222551 10148

Live tracking and technical data element details for STARLINK-1177 (NORAD 45078). STARLINK-1177 can be tracked NOW for your location showing map with azimuth and elevation plus other details from your city location.

Track the satellite on the map from your city or location and see movement details for azimuth, elevation, latitude, longitude, range, height, and movement on the map or in text.







IsCatalogInMostPopularTable: catalog: 45078, numindb: 11
Update: records affected: 1



GetName: 45078 STARLINK-1177

Hit Count: updated at: Sun, 05 Apr 2020 20:23:59 GMT